[[{"header":{"parameterUnit":"m.s-1","parameterCategory":1,"la1":30.2991,"la2":30.254,"lo1":-89.0895,"lo2":-89.0444,"dy":0.0017,"dx":0.0017,"nx":28,"ny":28,"refTime":"2026-02-06T03:00:00:Z","depth":0,"parameterNumber":2,"parameterNumberName":"U-component_of_WINDS"},"data":[0,0,0,0,0,0,0,0,0,0,0,0,0,0,0,0,0,0,0,0,0,0,0,0,0,0,0,0,0,0,0,0,0,0,0,0,0,0,0,0,0,0,0,0,0,0,0,0,0,0,0,0,0,0,0,0,0,0,-0.6705,-0.6705,0,-0.6652,-0.6651,-0.665,-0.6596,-0.6595,-0.6595,-0.6594,-0.6538,-0.6537,-0.6537,0,0,0,0,0,0,0,0,0,0,0,0,0,-0.676,-0.676,-0.6706,-0.6705,-0.6704,-0.6652,-0.6651,-0.665,-0.6596,-0.6595,-0.6594,-0.6594,-0.6538,-0.6537,-0.6537,0,0,0,0,0,0,0,0,0,0,0,0,0,-0.6725,-0.676,-0.6706,-0.6671,-0.6667,-0.6652,-0.6651,-0.665,-0.6596,-0.6595,-0.6594,-0.6593,-0.6539,-0.6538,-0.6536,-0.6551,0,0,-0.6533,-0.6532,0,0,0,0,0,0,0,0,-0.6727,-0.6723,-0.6677,-0.6673,-0.6669,-0.6629,-0.665,-0.6617,-0.6597,-0.6623,-0.6594,-0.6593,-0.6569,-0.6566,-0.6558,-0.6548,-0.6546,-0.6533,-0.6532,-0.6531,-0.6531,0,0,0,0,0,0,0,-0.6729,-0.6725,-0.6684,-0.6676,-0.6671,-0.6658,-0.6651,-0.6643,-0.6603,-0.6621,-0.6617,-0.6611,-0.6567,-0.6559,-0.6556,-0.6545,-0.6533,-0.6532,-0.6531,-0.653,-0.6543,-0.6544,0,0,0,0,0,0,-0.6737,-0.6727,-0.6686,-0.6682,-0.6696,-0.6657,-0.665,-0.6643,-0.6603,-0.6596,-0.6612,-0.6609,-0.6562,-0.6558,-0.6554,-0.6568,-0.6531,-0.653,-0.6529,-0.6542,-0.6543,-0.6544,0,0,0,0,0,0,-0.6739,-0.6734,-0.6688,-0.6704,-0.6697,-0.6658,-0.665,-0.6643,-0.6635,-0.6596,-0.6589,-0.6612,-0.6561,-0.6556,-0.6552,-0.6565,-0.653,-0.6529,-0.6541,-0.6542,-0.6544,-0.6596,0,0,0,0,0,0,-0.674,-0.6735,-0.674,-0.6704,-0.6696,-0.6687,-0.6651,-0.6642,-0.6633,-0.6628,-0.6594,-0.6587,-0.6559,-0.6554,-0.6551,-0.6563,-0.6528,-0.6539,-0.6541,-0.6543,-0.6593,-0.6599,-0.6604,0,0,0,0,0,-0.6743,-0.6757,-0.6741,-0.6736,-0.6702,-0.6688,-0.6684,-0.6652,-0.6634,-0.6639,-0.6614,-0.6588,-0.6564,-0.6554,-0.655,-0.6562,-0.6538,-0.6541,-0.6543,-0.659,-0.6598,-0.6604,0,0,0,0,0,0,-0.6796,-0.6752,-0.6733,-0.6737,-0.6717,-0.6679,-0.6685,-0.6661,-0.6645,-0.6641,-0.6602,-0.6595,-0.6595,-0.6578,-0.6567,-0.6573,-0.6547,-0.6549,-0.6585,-0.6592,-0.6597,-0.6602,-0.6527,0,0,0,0,0,-0.6808,-0.6801,-0.6762,-0.6769,-0.676,-0.6724,-0.6717,-0.6694,-0.6671,-0.6663,-0.6637,-0.6616,-0.6604,-0.6597,-0.6583,-0.659,-0.6581,-0.6596,-0.6602,-0.6606,-0.6609,-0.661,-0.6616,-0.6552,-0.6552,-0.6552,0,0,-0.6833,-0.6808,-0.6806,-0.6779,-0.6761,-0.6754,-0.6717,-0.6712,-0.6706,-0.6662,-0.6657,-0.6637,-0.6611,-0.6612,-0.6612,-0.6598,-0.6624,-0.661,-0.6614,-0.6613,-0.6614,-0.662,-0.6625,-0.6554,-0.6554,-0.6553,0,0,-0.6876,-0.6856,-0.686,-0.6842,-0.6814,-0.679,-0.6791,-0.6757,-0.6742,-0.6736,-0.6703,-0.6695,-0.6674,-0.6657,-0.6646,-0.668,-0.6655,-0.6676,-0.6707,-0.6709,-0.6715,-0.6719,-0.6731,-0.6736,-0.6679,-0.6679,-0.6679,0,-0.6911,-0.6899,-0.6864,-0.686,-0.6849,-0.6809,-0.6811,-0.6796,-0.6765,-0.6759,-0.6743,-0.6716,-0.6695,-0.6692,-0.67,-0.6692,-0.6692,-0.6681,-0.6717,-0.6721,-0.6724,-0.6736,-0.674,-0.6681,-0.6681,-0.6681,-0.6681,0,-0.6944,-0.6936,-0.6942,-0.6914,-0.6903,-0.6903,-0.6867,-0.686,-0.6838,-0.6815,-0.6809,-0.6783,-0.6763,-0.676,-0.6738,-0.6753,-0.6745,-0.6724,-0.6698,-0.6734,-0.6744,-0.6748,-0.6685,-0.6684,-0.6684,-0.6683,0,0,-0.702,-0.6971,-0.6974,-0.6961,-0.6927,-0.692,-0.6917,-0.6898,-0.6893,-0.6873,-0.6869,-0.6852,-0.6832,-0.6819,-0.6794,-0.6796,-0.6825,-0.6774,-0.6773,-0.6785,-0.684,-0.6857,-0.6863,-0.6808,-0.6808,-0.6809,-0.6842,0,-0.7057,-0.705,-0.7018,-0.7021,-0.7013,-0.6973,-0.6971,-0.6949,-0.6928,-0.6917,-0.6893,-0.6882,-0.6855,-0.6847,-0.6847,-0.6821,-0.6835,-0.6818,-0.6804,-0.6804,-0.6813,-0.6868,-0.6886,-0.6919,-0.6846,-0.6846,-0.6847,0,-0.71,-0.7083,-0.7085,-0.7051,-0.7046,-0.7045,-0.7024,-0.7014,-0.6989,-0.6973,-0.6958,-0.693,-0.6924,-0.6898,-0.689,-0.6879,-0.687,-0.6857,-0.6857,-0.6856,-0.6829,-0.6868,-0.6928,-0.6934,-0.6853,-0.6852,-0.6852,0,-0.7157,-0.7133,-0.7131,-0.7121,-0.7081,-0.708,-0.7064,-0.7037,-0.7027,-0.7008,-0.7002,-0.6982,-0.6972,-0.6958,-0.6925,-0.691,-0.692,-0.6892,-0.6906,-0.6907,-0.6911,-0.6912,-0.6972,-0.6905,-0.6905,-0.6905,-0.6905,0,-0.7202,-0.7205,-0.7156,-0.7155,-0.7157,-0.7119,-0.7122,-0.7101,-0.7077,-0.7071,-0.7035,-0.7029,-0.6986,-0.6976,-0.695,-0.6947,-0.6942,-0.6929,-0.6922,-0.6932,-0.6934,-0.6927,-0.6925,-0.6906,-0.6906,-0.6905,-0.6905,0,-0.7266,-0.7233,-0.7229,-0.7191,-0.7181,-0.7184,-0.7151,-0.7148,-0.7123,-0.7116,-0.7112,-0.7073,-0.7059,-0.7024,-0.7001,-0.6984,-0.6987,-0.6974,-0.6996,-0.6992,-0.7009,-0.7008,-0.7067,-0.7073,-0.7002,-0.7003,-0.7003,0,-0.7298,-0.7299,-0.7261,-0.7254,-0.7239,-0.7229,-0.7218,-0.718,-0.7171,-0.7141,-0.7142,-0.7125,-0.7109,-0.7088,-0.7058,-0.7039,-0.7026,-0.7048,-0.7023,-0.7033,-0.7027,-0.7028,-0.7028,-0.7054,-0.7055,-0.7056,-0.7056,0,-0.7358,-0.7342,-0.7328,-0.7309,-0.7298,-0.7281,-0.7262,-0.7258,-0.7215,-0.7206,-0.7191,-0.7179,-0.7155,-0.7138,-0.7115,-0.7097,-0.707,-0.7064,-0.7067,-0.7078,-0.7091,-0.7085,-0.7012,-0.7063,-0.7063,-0.7062,-0.7062,-0.7062,-0.7407,-0.7407,-0.738,-0.7366,-0.7347,-0.733,-0.7325,-0.73,-0.7286,-0.7264,-0.7242,-0.7229,-0.7202,-0.7168,-0.7152,-0.7141,-0.7127,-0.713,-0.7131,-0.7133,-0.7138,-0.7092,-0.7136,-0.7136,-0.7136,-0.7135,-0.7135,0,-0.7466,-0.7447,-0.7434,-0.7409,-0.7397,-0.7372,-0.7349,-0.7342,-0.7331,-0.7308,-0.7293,-0.7276,-0.7259,-0.7227,-0.7207,-0.7204,-0.7191,-0.72,-0.7201,-0.7197,-0.7151,-0.7151,-0.7211,-0.7211,-0.7211,-0.7211,-0.7211,-0.7211,-0.7496,-0.7493,-0.7473,-0.746,-0.744,-0.7428,-0.7417,-0.74,-0.7382,-0.7364,-0.735,-0.7329,-0.7302,-0.728,-0.7263,-0.7254,-0.7248,-0.7262,-0.7249,-0.7207,-0.72,-0.7193,-0.7193,-0.7261,-0.7261,-0.7295,-0.7296,-0.7296]},{"header":{"parameterUnit":"m.s-1","parameterCategory":1,"la1":30.2991,"la2":30.254,"lo1":-89.0895,"lo2":-89.0444,"dy":0.0017,"dx":0.0017,"nx":28,"ny":28,"refTime":"2026-02-06T03:00:00:Z","depth":0,"parameterNumber":3,"parameterNumberName":"V-component_of_WINDS"},"data":[0,0,0,0,0,0,0,0,0,0,0,0,0,0,0,0,0,0,0,0,0,0,0,0,0,0,0,0,0,0,0,0,0,0,0,0,0,0,0,0,0,0,0,0,0,0,0,0,0,0,0,0,0,0,0,0,0,0,-4.272,-4.2721,0,-4.2835,-4.2836,-4.2837,-4.2871,-4.287,-4.287,-4.2869,-4.298,-4.2984,-4.2987,0,0,0,0,0,0,0,0,0,0,0,0,0,-4.2526,-4.2529,-4.2719,-4.2721,-4.2722,-4.2834,-4.2836,-4.2838,-4.2871,-4.287,-4.287,-4.2869,-4.2979,-4.2983,-4.2987,0,0,0,0,0,0,0,0,0,0,0,0,0,-4.2622,-4.253,-4.2719,-4.2753,-4.2757,-4.2834,-4.2836,-4.2838,-4.2871,-4.287,-4.2869,-4.2869,-4.2978,-4.2983,-4.2988,-4.3038,0,0,-4.3004,-4.3006,0,0,0,0,0,0,0,0,-4.2616,-4.2629,-4.2746,-4.2751,-4.2755,-4.2838,-4.2808,-4.2905,-4.2871,-4.2828,-4.2869,-4.2868,-4.2933,-4.2942,-4.2965,-4.3043,-4.3048,-4.3005,-4.3008,-4.301,-4.3011,0,0,0,0,0,0,0,-4.261,-4.2624,-4.2765,-4.2748,-4.2754,-4.2761,-4.2774,-4.2827,-4.2884,-4.2831,-4.2834,-4.2848,-4.2935,-4.296,-4.2968,-4.305,-4.3004,-4.3009,-4.3012,-4.3014,-4.3178,-4.318,0,0,0,0,0,0,-4.2598,-4.2618,-4.2761,-4.2768,-4.2683,-4.2765,-4.278,-4.2812,-4.2883,-4.2893,-4.2848,-4.2849,-4.2952,-4.2962,-4.2972,-4.3039,-4.301,-4.3015,-4.3018,-4.3177,-4.3179,-4.318,0,0,0,0,0,0,-4.2594,-4.261,-4.2757,-4.2694,-4.2714,-4.277,-4.2806,-4.2815,-4.284,-4.2896,-4.2906,-4.2863,-4.2951,-4.2965,-4.3023,-4.3043,-4.3017,-4.3022,-4.3176,-4.3178,-4.3179,-4.3169,0,0,0,0,0,0,-4.2588,-4.2609,-4.2629,-4.2695,-4.2717,-4.2806,-4.2807,-4.2818,-4.285,-4.2851,-4.2913,-4.2922,-4.2952,-4.3015,-4.3028,-4.3049,-4.3026,-4.3174,-4.3177,-4.3179,-4.3168,-4.3171,-4.3173,0,0,0,0,0,-4.2581,-4.2619,-4.2629,-4.2646,-4.2743,-4.2807,-4.282,-4.2855,-4.2851,-4.2872,-4.2908,-4.292,-4.3038,-4.3021,-4.3036,-4.3059,-4.3173,-4.3176,-4.3179,-4.3167,-4.317,-4.3173,0,0,0,0,0,0,-4.255,-4.2628,-4.264,-4.2701,-4.2748,-4.2813,-4.284,-4.2856,-4.2903,-4.2902,-4.2942,-4.2956,-4.3012,-4.3041,-4.302,-4.3113,-4.3106,-4.3112,-4.3092,-4.3095,-4.3098,-4.309,-4.303,0,0,0,0,0,-4.2551,-4.2598,-4.2663,-4.271,-4.2733,-4.2783,-4.2811,-4.2835,-4.2884,-4.2903,-4.2944,-4.299,-4.3038,-4.3068,-4.3114,-4.3172,-4.3188,-4.3196,-4.3198,-4.32,-4.3205,-4.3241,-4.3246,-4.3189,-4.3189,-4.3189,0,0,-4.2551,-4.26,-4.2627,-4.2705,-4.2744,-4.2792,-4.2798,-4.2847,-4.2883,-4.291,-4.2969,-4.3001,-4.3054,-4.3114,-4.3142,-4.3139,-4.3224,-4.3203,-4.3204,-4.3208,-4.3244,-4.325,-4.3254,-4.3191,-4.3191,-4.319,0,0,-4.2578,-4.2619,-4.2665,-4.2705,-4.2766,-4.2799,-4.281,-4.2874,-4.2898,-4.2958,-4.298,-4.3022,-4.3103,-4.3142,-4.3172,-4.3218,-4.3232,-4.3232,-4.3244,-4.3279,-4.3283,-4.3287,-4.3306,-4.3312,-4.3236,-4.3236,-4.3236,0,-4.2571,-4.2645,-4.2685,-4.2735,-4.277,-4.28,-4.2847,-4.2884,-4.2955,-4.2978,-4.2975,-4.3081,-4.3118,-4.3189,-4.3201,-4.3223,-4.3238,-4.3225,-4.328,-4.3284,-4.3289,-4.3307,-4.3314,-4.3236,-4.3236,-4.3236,-4.3236,0,-4.2635,-4.2686,-4.2716,-4.2789,-4.2827,-4.2874,-4.2922,-4.2955,-4.2976,-4.301,-4.3072,-4.312,-4.3179,-4.3197,-4.3216,-4.3271,-4.3269,-4.3272,-4.3266,-4.3294,-4.3312,-4.3319,-4.3236,-4.3236,-4.3236,-4.3236,0,0,-4.2642,-4.2741,-4.2751,-4.2787,-4.2858,-4.2898,-4.2948,-4.3009,-4.3038,-4.3086,-4.313,-4.32,-4.3206,-4.324,-4.3264,-4.3294,-4.3332,-4.3295,-4.3297,-4.3302,-4.3399,-4.3397,-4.3405,-4.3342,-4.3343,-4.3344,-4.3395,0,-4.2679,-4.2773,-4.2813,-4.2888,-4.2937,-4.2969,-4.3013,-4.3061,-4.3095,-4.3141,-4.3177,-4.3227,-4.3229,-4.3251,-4.3282,-4.3321,-4.3352,-4.3317,-4.3383,-4.3385,-4.337,-4.3414,-4.3411,-4.3457,-4.3403,-4.3404,-4.3405,0,-4.2734,-4.2789,-4.287,-4.294,-4.2962,-4.3001,-4.3063,-4.3106,-4.3162,-4.3184,-4.3225,-4.3249,-4.3303,-4.3294,-4.3369,-4.3345,-4.3374,-4.3398,-4.34,-4.3408,-4.3397,-4.3425,-4.3472,-4.3479,-4.3416,-4.3415,-4.3414,0,-4.2735,-4.2828,-4.289,-4.2919,-4.3001,-4.3028,-4.3063,-4.3119,-4.3154,-4.3207,-4.3231,-4.3288,-4.3319,-4.3362,-4.3401,-4.339,-4.3474,-4.3467,-4.3495,-4.3494,-4.3511,-4.3509,-4.3565,-4.3527,-4.3527,-4.3527,-4.3527,0,-4.2773,-4.2821,-4.2892,-4.293,-4.2986,-4.3032,-4.3086,-4.3123,-4.3173,-4.3218,-4.3248,-4.3289,-4.3338,-4.3386,-4.3416,-4.3476,-4.3488,-4.3508,-4.3516,-4.3507,-4.3505,-4.3527,-4.3525,-4.3529,-4.3528,-4.3528,-4.3528,0,-4.2782,-4.2831,-4.2901,-4.2975,-4.2995,-4.3034,-4.3097,-4.3135,-4.3172,-4.3229,-4.3245,-4.3302,-4.3361,-4.3404,-4.3478,-4.3499,-4.3563,-4.357,-4.3546,-4.355,-4.3576,-4.3574,-4.3649,-4.3662,-4.3613,-4.3614,-4.3614,0,-4.2803,-4.2843,-4.2923,-4.2958,-4.2994,-4.3048,-4.3086,-4.3133,-4.3171,-4.3241,-4.3271,-4.3333,-4.3384,-4.3476,-4.3523,-4.3581,-4.3591,-4.3613,-4.3599,-4.359,-4.3594,-4.3592,-4.3597,-4.3615,-4.3615,-4.3616,-4.3616,0,-4.2837,-4.2861,-4.2916,-4.2981,-4.3027,-4.3079,-4.3132,-4.3158,-4.3214,-4.3256,-4.3319,-4.3359,-4.3438,-4.3499,-4.3563,-4.3598,-4.3617,-4.362,-4.363,-4.3621,-4.3607,-4.3618,-4.3553,-4.3618,-4.3618,-4.3618,-4.3618,-4.3618,-4.2854,-4.2893,-4.2957,-4.3018,-4.3064,-4.3114,-4.3156,-4.32,-4.3254,-4.3325,-4.3348,-4.3413,-4.3472,-4.356,-4.3596,-4.3647,-4.3647,-4.366,-4.3664,-4.3667,-4.3668,-4.3598,-4.3658,-4.3658,-4.3658,-4.3658,-4.3658,0,-4.2891,-4.2936,-4.2992,-4.3068,-4.3117,-4.3135,-4.3195,-4.3235,-4.3293,-4.3347,-4.34,-4.3473,-4.3534,-4.3587,-4.365,-4.3681,-4.3692,-4.3696,-4.3695,-4.3703,-4.3663,-4.3649,-4.3687,-4.3687,-4.3687,-4.3687,-4.3687,-4.3687,-4.2916,-4.2983,-4.3016,-4.3106,-4.315,-4.3217,-4.3251,-4.3297,-4.3342,-4.3424,-4.3476,-4.3512,-4.3567,-4.3635,-4.3692,-4.3706,-4.3728,-4.3731,-4.3747,-4.3709,-4.3705,-4.3702,-4.369,-4.3735,-4.3735,-4.3784,-4.3784,-4.3785]}]]